Location: Cicognara
(44.9500°N, 10.4667°E)
Time: 23:29:10
(UTC+00:00)

Meteor 2-10 Rocket - Pass Details

Date: 20 June 2021
Orbit: 733 x 885 km, 81.2° (Epoch: 23 July)

Event Time Altitude Azimuth Distance (km) Brightness Sun altitude
Rises 21:32:50 0° 348° (NNW) 3,209 8.3 -17.4°
Reaches altitude 10° 21:35:11 10° 348° (NNW) 2,267 7.2 -17.6°
Maximum altitude 21:40:15 83° 262° (W) 746 3.4 -17.9°
Enters shadow 21:42:36 32° 176° (S) 1,238 4.1 -18.1°
